Time,TemperatureF,DewpointF,PressureIn,WindDirection,WindDirectionDegrees,WindSpeedMPH,WindSpeedGustMPH,Humidity,HourlyPrecipIn,Conditions,Clouds,dailyrainin,SoftwareType,DateUTC
2013-03-01 00:22:00,31.0,-99.9,29.66,WSW,246,-999.0,-999.0,-999,-99.99,,,-99.99,,2013-03-01 05:22:00,
2013-03-01 00:33:00,31.0,-99.9,29.66,WSW,246,-999.0,-999.0,-999,-99.99,,,-99.99,,2013-03-01 05:33:00,
2013-03-01 00:42:00,31.0,-99.9,29.66,WSW,246,-999.0,-999.0,-999,-99.99,,,-99.99,,2013-03-01 05:42:00,
2013-03-01 00:52:00,28.0,-99.9,29.67,WSW,246,-999.0,-999.0,-999,-99.99,,,-99.99,,2013-03-01 05:52:00,
2013-03-01 01:22:00,28.0,-99.9,29.67,WSW,246,-999.0,-999.0,-999,-99.99,,,-99.99,,2013-03-01 06:22:00,
2013-03-01 01:32:00,28.0,-99.9,29.67,WSW,246,-999.0,-999.0,-999,-99.99,,,-99.99,,2013-03-01 06:32:00,
2013-03-01 01:43:00,28.0,-99.9,29.67,WSW,246,-999.0,-999.0,-999,-99.99,,,-99.99,,2013-03-01 06:43:00,
2013-03-01 02:22:00,27.0,-99.9,29.67,WSW,246,-999.0,-999.0,-999,-99.99,,,-99.99,,2013-03-01 07:22:00,
2013-03-01 02:33:00,27.0,-99.9,29.67,WSW,246,-999.0,-999.0,-999,-99.99,,,-99.99,,2013-03-01 07:33:00,
2013-03-01 02:42:00,27.0,-99.9,29.67,WSW,246,-999.0,-999.0,-999,-99.99,,,-99.99,,2013-03-01 07:42:00,
2013-03-01 02:52:00,27.0,-99.9,29.67,WSW,246,-999.0,-999.0,-999,-99.99,,,-99.99,,2013-03-01 07:52:00,
2013-03-01 03:22:00,27.0,-99.9,29.67,WSW,246,-999.0,-999.0,-999,-99.99,,,-99.99,,2013-03-01 08:22:00,
2013-03-01 03:33:00,27.0,-99.9,29.67,WSW,246,-999.0,-999.0,-999,-99.99,,,-99.99,,2013-03-01 08:33:00,
2013-03-01 03:43:00,27.0,-99.9,29.67,WSW,246,-999.0,-999.0,-999,-99.99,,,-99.99,,2013-03-01 08:43:00,
2013-03-01 05:52:00,31.0,-99.9,29.70,NE,49,-999.0,-999.0,-999,-99.99,,,-99.99,,2013-03-01 10:52:00,
2013-03-01 06:23:00,31.0,-99.9,29.70,NE,49,-999.0,-999.0,-999,-99.99,,,-99.99,,2013-03-01 11:23:00,
2013-03-01 06:32:00,31.0,-99.9,29.70,NE,49,-999.0,-999.0,-999,-99.99,,,-99.99,,2013-03-01 11:32:00,
2013-03-01 06:42:00,31.0,-99.9,29.70,NE,49,-999.0,-999.0,-999,-99.99,,,-99.99,,2013-03-01 11:42:00,
2013-03-01 06:52:00,32.0,-99.9,29.71,NE,50,-999.0,4.0,-999,-99.99,,,-99.99,,2013-03-01 11:52:00,
2013-03-01 07:33:00,32.0,-99.9,29.71,NE,50,-999.0,4.0,-999,-99.99,,,-99.99,,2013-03-01 12:33:00,
2013-03-01 07:42:00,32.0,-99.9,29.71,NE,50,-999.0,4.0,-999,-99.99,,,-99.99,,2013-03-01 12:42:00,
2013-03-01 07:52:00,35.0,-99.9,29.73,NNW,338,-999.0,5.0,-999,-99.99,,,-99.99,,2013-03-01 12:52:00,
2013-03-01 08:22:00,35.0,-99.9,29.73,NNW,338,-999.0,5.0,-999,-99.99,,,-99.99,,2013-03-01 13:22:00,
2013-03-01 08:32:00,35.0,-99.9,29.73,NNW,338,-999.0,5.0,-999,-99.99,,,-99.99,,2013-03-01 13:32:00,
2013-03-01 08:42:00,35.0,-99.9,29.73,NNW,338,-999.0,5.0,-999,-99.99,,,-99.99,,2013-03-01 13:42:00,
2013-03-01 08:52:00,38.0,-99.9,29.74,NE,39,-999.0,7.0,-999,-99.99,,,-99.99,,2013-03-01 13:52:00,
2013-03-01 09:22:00,38.0,-99.9,29.74,NE,39,-999.0,7.0,-999,-99.99,,,-99.99,,2013-03-01 14:22:00,
2013-03-01 09:32:00,38.0,-99.9,29.74,NE,39,-999.0,7.0,-999,-99.99,,,-99.99,,2013-03-01 14:32:00,
2013-03-01 09:42:00,38.0,-99.9,29.74,NE,39,-999.0,7.0,-999,-99.99,,,-99.99,,2013-03-01 14:42:00,
2013-03-01 09:52:00,40.0,-99.9,29.74,NE,46,-999.0,9.0,-999,-99.99,,,-99.99,,2013-03-01 14:52:00,
2013-03-01 10:21:00,40.0,-99.9,29.74,NE,46,-999.0,9.0,-999,-99.99,,,-99.99,,2013-03-01 15:21:00,
2013-03-01 10:32:00,40.0,-99.9,29.74,NE,46,-999.0,9.0,-999,-99.99,,,-99.99,,2013-03-01 15:32:00,
2013-03-01 10:42:00,40.0,-99.9,29.74,NE,46,-999.0,9.0,-999,-99.99,,,-99.99,,2013-03-01 15:42:00,
2013-03-01 10:52:00,41.0,-99.9,29.74,North,-999,-999.0,7.0,-999,-99.99,,,-99.99,,2013-03-01 15:52:00,
2013-03-01 11:22:00,41.0,-99.9,29.74,North,-999,-999.0,7.0,-999,-99.99,,,-99.99,,2013-03-01 16:22:00,
2013-03-01 11:32:00,41.0,-99.9,29.74,North,-999,-999.0,7.0,-999,-99.99,,,-99.99,,2013-03-01 16:32:00,
2013-03-01 11:42:00,41.0,-99.9,29.74,North,-999,-999.0,7.0,-999,-99.99,,,-99.99,,2013-03-01 16:42:00,
2013-03-01 11:52:00,40.0,-99.9,29.75,North,-999,5.0,-999.0,-999,-99.99,,,-99.99,,2013-03-01 16:52:00,
2013-03-01 12:21:00,40.0,-99.9,29.75,North,-999,5.0,-999.0,-999,-99.99,,,-99.99,,2013-03-01 17:21:00,
2013-03-01 12:32:00,40.0,-99.9,29.75,North,-999,5.0,-999.0,-999,-99.99,,,-99.99,,2013-03-01 17:32:00,
2013-03-01 12:42:00,40.0,-99.9,29.75,North,-999,5.0,-999.0,-999,-99.99,,,-99.99,,2013-03-01 17:42:00,
2013-03-01 12:52:00,42.0,-99.9,29.74,NE,54,-999.0,8.0,-999,-99.99,,,-99.99,,2013-03-01 17:52:00,
2013-03-01 13:22:00,42.0,-99.9,29.74,NE,54,-999.0,8.0,-999,-99.99,,,-99.99,,2013-03-01 18:22:00,
2013-03-01 13:32:00,42.0,-99.9,29.74,NE,54,-999.0,8.0,-999,-99.99,,,-99.99,,2013-03-01 18:32:00,
2013-03-01 13:42:00,42.0,-99.9,29.74,NE,54,-999.0,8.0,-999,-99.99,,,-99.99,,2013-03-01 18:42:00,
2013-03-01 13:52:00,42.0,-99.9,29.73,East,90,6.0,9.0,-999,-99.99,,,-99.99,,2013-03-01 18:52:00,
2013-03-01 14:22:00,42.0,-99.9,29.73,East,90,6.0,9.0,-999,-99.99,,,-99.99,,2013-03-01 19:22:00,
2013-03-01 14:32:00,42.0,-99.9,29.73,East,90,6.0,9.0,-999,-99.99,,,-99.99,,2013-03-01 19:32:00,
2013-03-01 14:42:00,42.0,-99.9,29.73,East,90,6.0,9.0,-999,-99.99,,,-99.99,,2013-03-01 19:42:00,
2013-03-01 14:52:00,42.0,-99.9,29.74,NE,40,-999.0,6.0,-999,-99.99,,,-99.99,,2013-03-01 19:52:00,
2013-03-01 15:22:00,42.0,-99.9,29.74,NE,40,-999.0,6.0,-999,-99.99,,,-99.99,,2013-03-01 20:22:00,
2013-03-01 15:32:00,42.0,-99.9,29.74,NE,40,-999.0,6.0,-999,-99.99,,,-99.99,,2013-03-01 20:32:00,
2013-03-01 15:42:00,42.0,-99.9,29.74,NE,40,-999.0,6.0,-999,-99.99,,,-99.99,,2013-03-01 20:42:00,
2013-03-01 15:52:00,40.0,-99.9,29.75,NW,313,-999.0,8.0,-999,-99.99,,,-99.99,,2013-03-01 20:52:00,
2013-03-01 16:22:00,40.0,-99.9,29.75,NW,313,-999.0,8.0,-999,-99.99,,,-99.99,,2013-03-01 21:22:00,
2013-03-01 16:32:00,40.0,-99.9,29.75,NW,313,-999.0,8.0,-999,-99.99,,,-99.99,,2013-03-01 21:32:00,
2013-03-01 16:42:00,40.0,-99.9,29.75,NW,313,-999.0,8.0,-999,-99.99,,,-99.99,,2013-03-01 21:42:00,
2013-03-01 17:22:00,39.0,-99.9,29.76,East,84,11.0,11.0,-999,-99.99,,,-99.99,,2013-03-01 22:22:00,
2013-03-01 17:32:00,39.0,-99.9,29.76,East,84,11.0,11.0,-999,-99.99,,,-99.99,,2013-03-01 22:32:00,
2013-03-01 17:42:00,39.0,-99.9,29.76,East,84,11.0,11.0,-999,-99.99,,,-99.99,,2013-03-01 22:42:00,
2013-03-01 17:52:00,39.0,-99.9,29.76,East,84,11.0,11.0,-999,-99.99,,,-99.99,,2013-03-01 22:52:00,
2013-03-01 18:21:00,37.0,-99.9,29.78,NNE,16,-999.0,7.0,-999,-99.99,,,-99.99,,2013-03-01 23:21:00,
2013-03-01 18:32:00,37.0,-99.9,29.78,NNE,16,-999.0,7.0,-999,-99.99,,,-99.99,,2013-03-01 23:32:00,
2013-03-01 18:42:00,37.0,-99.9,29.78,NNE,16,-999.0,7.0,-999,-99.99,,,-99.99,,2013-03-01 23:42:00,
2013-03-01 18:52:00,36.0,-99.9,29.80,West,266,-999.0,14.0,-999,-99.99,,,-99.99,,2013-03-01 23:52:00,
2013-03-01 19:32:00,36.0,-99.9,29.80,West,266,-999.0,14.0,-999,-99.99,,,-99.99,,2013-03-02 00:32:00,
2013-03-01 19:42:00,36.0,-99.9,29.80,West,266,-999.0,14.0,-999,-99.99,,,-99.99,,2013-03-02 00:42:00,
2013-03-01 19:52:00,35.0,-99.9,29.81,NNE,29,3.0,10.0,-999,-99.99,,,-99.99,,2013-03-02 00:52:00,
2013-03-01 20:21:00,35.0,-99.9,29.81,NNE,29,3.0,10.0,-999,-99.99,,,-99.99,,2013-03-02 01:21:00,
2013-03-01 20:32:00,35.0,-99.9,29.81,NNE,29,3.0,10.0,-999,-99.99,,,-99.99,,2013-03-02 01:32:00,
2013-03-01 20:42:00,35.0,-99.9,29.81,NNE,29,3.0,10.0,-999,-99.99,,,-99.99,,2013-03-02 01:42:00,
2013-03-01 20:52:00,35.0,-99.9,29.82,NE,40,5.0,11.0,-999,-99.99,,,-99.99,,2013-03-02 01:52:00,
2013-03-01 21:22:00,35.0,-99.9,29.82,NE,40,5.0,11.0,-999,-99.99,,,-99.99,,2013-03-02 02:22:00,
2013-03-01 21:32:00,35.0,-99.9,29.82,NE,40,5.0,11.0,-999,-99.99,,,-99.99,,2013-03-02 02:32:00,
2013-03-01 21:42:00,35.0,-99.9,29.82,NE,40,5.0,11.0,-999,-99.99,,,-99.99,,2013-03-02 02:42:00,
2013-03-01 21:52:00,34.0,-99.9,29.83,NE,43,-999.0,8.0,-999,-99.99,,,-99.99,,2013-03-02 02:52:00,
2013-03-01 22:22:00,34.0,-99.9,29.83,NE,43,-999.0,8.0,-999,-99.99,,,-99.99,,2013-03-02 03:22:00,
2013-03-01 22:32:00,34.0,-99.9,29.83,NE,43,-999.0,8.0,-999,-99.99,,,-99.99,,2013-03-02 03:32:00,
2013-03-01 22:42:00,34.0,-99.9,29.83,NE,43,-999.0,8.0,-999,-99.99,,,-99.99,,2013-03-02 03:42:00,
2013-03-01 22:52:00,33.0,-99.9,29.83,North,351,-999.0,-999.0,-999,-99.99,,,-99.99,,2013-03-02 03:52:00,
2013-03-01 23:32:00,33.0,-99.9,29.83,North,351,-999.0,-999.0,-999,-99.99,,,-99.99,,2013-03-02 04:32:00,
2013-03-01 23:42:00,33.0,-99.9,29.83,North,351,-999.0,-999.0,-999,-99.99,,,-99.99,,2013-03-02 04:42:00,
2013-03-01 23:52:00,33.0,-99.9,29.83,North,6,-999.0,7.0,-999,-99.99,,,-99.99,,2013-03-02 04:52:00,